Reflectivity
-17 -19 -18 7 20 -6 -11 -5 -10 17 24 34 33 19 22 28 34 44 36 36 43 46 36 18 2 -20 5 0 21 36 25 23 14 8 7 -14 -19 -20 -20 -20 -20 -20 -20
8 12 4 2 9 12 2 -18 -20 -20 16 36 39 38 35 40 36 36 9 35 45 34 36 6 -20 -20 -20 -4 2 3 13 7 -5 1 -16 -10 -20 -20 -20 -20 -20 -20 -20
-20 10 13 14 2 18 5 -4 -20 -20 -6 15 16 17 34 39 24 39 34 27 36 34 22 7 -20 -20 -20 -20 -20 -18 -11 -8 -2 -7 5 0 -20 -20 -20 -20 -20 -20 -20
3 4 14 18 7 24 21 -8 -18 -20 -20 -16 -7 26 27 13 23 26 16 30 26 13 6 4 1 0 -20 -20 -20 -19 -20 -4 -12 -15 -20 -20 -20 -20 -20 -20 -20 -20 -20
6 8 20 23 20 16 32 11 3 -14 -2 7 17 28 36 35 29 24 14 12 9 20 33 35 34 20 21 8 4 15 13 -6 -20 -20 -20 -20 -20 -20 -20 -20 -20 -20 -20
8 17 21 19 21 16 36 31 13 -6 -6 -2 7 20 24 27 34 36 37 36 37 37 34 33 24 21 23 18 13 14 -1 -19 -20 -20 -20 -20 -20 -20 -8 -1 -15 -20 -6
13 23 24 24 15 24 28 15 3 8 -10 -6 0 6 10 18 32 31 29 23 20 20 20 11 -14 13 20 12 8 9 -5 -20 -20 -20 -20 -20 -20 -20 -20 -20 -20 -20 -13
11 17 17 26 23 23 19 7 4 -10 -3 5 -6 -5 1 10 17 17 19 14 10 3 11 7 -3 -7 4 -3 -18 -20 -20 -20 -20 -20 -20 -20 -20 -20 -20 -20 -20 -20 -20
2 12 16 15 11 4 3 8 5 -3 -18 -3 6 1 -4 -8 2 7 5 7 -8 -2 4 11 3 8 2 -20 -20 -20 -20 -20 -20 -20 -20 -20 -20 -20 -20 -20 -20 -20 -13
6 3 3 12 13 4 5 4 0 -16 -20 -5 1 0 1 -7 -0 -2 -17 -19 -20 -16 -7 -18 -20 -20 -20 -20 -20 -20 -20 -20 -20 -20 -20 -20 -20 -20 -20 -20 -17 3 9
5 4 4 -2 -1 -1 -4 -5 -14 -7 -0 -14 -20 3 8 -1 5 6 3 -2 -14 -12 -20 -20 -20 -20 -20 -15 -8 -20 -8 -20 -20 -12 -20 -20 -20 -20 -20 -20 -20 -20 -8
2 -4 -1 -11 -17 -5 -19 -17 -19 -17 -10 5 -20 -2 6 -20 -9 3 3 -16 -16 -17 -20 -20 -7 -12 -4 -8 -20 -4 0 3 -14 -20 -20 -11 -20 -20 -20 -20 -20 -20 -20
3 1 -13 -20 -20 -20 -4 1 -10 -20 -20 -20 -20 -20 -17 -20 -20 -20 -20 -20 -20 -20 -20 -20 5 -20 -18 -20 -20 -1 -20 -20 -20 -20 -9 -19 -20 -20 -20 -20 -20 -20 -20
-20 -20 -19 -20 -20 -20 -5 5 -3 -19 -20 -20 -3 -18 -20 -20 -20 -20 -20 -20 -20 -20 -20 3 -20 -17 -20 -20 -20 -20 -20 -6 -10 3 -18 -20 -17 -16 -18 -11 0 -17 -17
-20 -20 -19 -20 -20 -20 -20 -20 -9 -20 -20 -20 -20 -12 -20 -20 -20 -20 -20 -20 -20 -20 -11 -20 -20 -20 -16 -6 -2 -4 -1 -1 2 -4 -19 3 -17 -2 -1 -5 -0 -2 3
-20 -20 -20 -20 -19 -6 -6 -10 -14 -20 -20 -20 -20 -20 -20 -20 -20 -20 -20 -20 -20 -20 -20 -9 0 0 1 -4 -6 0 -1 -1 0 -5 0 0 -14 2 -15 -17 -12 1 -20
-20 -20 -20 -20 -18 -7 -9 -18 -17 -20 -20 -20 -20 -20 -20 -20 -20 -20 -20 -20 -20 -20 -10 -9 -1 -1 1 3 2 -15 -20 -13 -2 0 -19 -20 -20 -20 -20 -20 -3 -0 -7
-20 -18 -20 -16 1 -5 -8 -18 -20 -20 -20 -20 -20 -20 -20 -20 -20 -20 -20 -20 -20 -20 -5 -20 -12 1 -0 -20 -20 -20 -20 -20 -20 -20 -20 -20 -20 -20 -20 -20 -20 -20 -20
-18 -20 -20 -14 -8 -11 -16 -20 -20 -20 -20 -20 -20 -20 -20 -20 -20 -20 -20 -20 -20 -20 -20 -20 -20 -20 -20 -20 -16 -11 -11 -20 -20 -20 -20 -18 -20 -19 -20 -20 -20 -20 -18
-2 -1 -4 -9 -20 -20 -20 -20 -20 -20 -20 -20 -20 -20 -20 -20 -20 -20 -20 -20 -20 -20 -20 3 1 -3 0 1 -10 -20 -20 -20 -20 -20 -20 -20 -20 -17 -12 -20 -20 -18 -20
-4 -7 -19 -20 -20 -20 -20 -20 -20 -20 -20 -20 -20 -20 -20 -20 -20 -20 -20 -20 -20 -20 -20 -20 -20 -20 1 -20 -20 -20 -20 -20 -20 -20 -20 -20 -19 -20 -20 -20 -18 -18 -2
-20 -20 -20 -20 -20 -20 -20 -20 -20 -20 -20 -20 -20 -20 -20 -20 -20 -20 -20 -20 -20 -20 -20 -20 -20 -20 -20 -20 -20 -20 -20 -20 -20 -20 -20 -20 -19 -20 -19 -18 -20 -20 -20
-20 -20 -20 -20 -20 -20 -20 -20 -20 -20 -20 -20 -12 -20 -20 -20 -20 -20 -20 -20 -20 -20 -20 -20 -20 -20 -20 -20 -20 -6 -5 -20 -20 -20 -20 -20 -20 -15 -20 -20 -20 -20 -20
-20 -20 -20 -20 -20 -20 -20 -20 -20 -20 -20 -6 -13 -15 -20 -20 -20 -20 -20 -20 -20 -20 -20 -20 -20 -20 -20 -20 -19 -12 4 4 0 -8 -17 -18 -20 -20 -12 -19 -20 -18 -19
-20 -20 -20 -20 -7 -7 -12 -20 -20 -8 -9 -13 -20 -20 -20 -20 -20 -20 -20 -20 -20 -20 -20 -20 -20 -20 -20 -20 -17 -3 1 1 5 -0 -14 -2 4 -12 -20 -20 -18 1 12
-20 -20 -20 -20 -14 -20 -16 -16 -20 -20 -19 -20 -20 -20 -20 -20 -20 -20 -20 -20 -20 -20 -20 -20 -20 -20 -20 -20 -12 -0 3 3 5 2 11 -8 -5 9 14 16 17 18 12
Wind_Speed
9 9 9 9 11 10 11 13 14 16 19 20 17 17 19 16 16 14 11 17 11 11 12 13 13 12 7 6 8 5 2 3 4 3 3 6 7 6 7 10 8 8 3
10 9 9 10 11 11 12 13 14 16 17 17 16 17 19 18 13 14 22 20 16 17 16 17 16 10 13 11 7 7 6 5 3 5 3 7 9 10 9 9 8 8 8
8 8 9 10 10 11 13 15 15 16 16 18 16 20 18 14 19 18 16 17 16 17 18 18 16 16 15 10 10 9 8 6 4 4 6 7 6 9 10 7 8 9 9
8 8 8 9 11 11 11 13 14 16 16 16 17 16 16 19 21 17 16 16 15 14 14 14 13 15 15 14 13 12 9 7 9 8 5 5 6 6 5 6 8 6 8
10 10 11 11 12 13 14 13 15 16 15 15 16 17 17 17 14 15 14 15 16 15 13 12 14 20 24 19 9 9 10 8 6 6 7 5 6 6 7 5 8 10 11
10 11 11 11 11 11 11 12 13 15 15 16 15 17 16 11 26 26 14 13 14 12 12 9 12 18 18 18 16 14 8 5 4 3 3 4 6 7 6 6 7 8 8
11 10 10 10 10 11 12 11 14 13 13 16 14 15 17 16 28 27 16 9 9 10 12 11 11 12 16 13 13 12 11 12 5 5 7 7 8 9 9 8 8 9 10
10 10 10 10 11 12 12 13 13 11 13 12 12 15 16 16 28 29 15 8 7 10 12 11 11 10 12 12 10 9 8 8 12 9 8 8 8 9 9 10 11 11 8
12 11 11 11 11 12 13 11 10 8 8 11 11 14 15 16 29 28 17 13 12 12 12 12 12 13 21 21 11 11 11 11 14 19 17 18 16 18 13 8 8 8 9
11 11 12 12 12 11 9 7 7 8 11 8 10 13 22 15 27 27 21 10 13 10 11 12 20 18 21 21 12 11 11 11 12 12 10 12 11 12 16 10 10 9 9
12 13 12 11 10 9 8 7 8 9 8 11 13 13 14 18 18 27 26 12 11 9 9 9 9 21 21 19 16 9 10 11 10 8 8 8 8 8 8 9 11 9 10
12 12 11 11 10 9 11 11 11 10 11 11 11 10 11 13 23 24 25 22 21 10 9 8 9 20 20 18 11 16 16 8 6 7 8 8 9 10 10 11 13 11 11
10 10 12 12 12 13 13 13 10 11 10 10 9 10 9 9 10 23 22 22 20 10 9 15 16 18 18 10 17 17 10 7 7 8 8 9 8 9 12 12 12 13 13
10 12 11 12 12 11 9 9 9 9 9 9 9 9 8 9 11 11 10 9 15 11 12 8 8 10 9 9 10 11 9 8 9 8 9 9 8 9 10 9 10 11 11
8 9 8 7 8 9 9 7 7 8 10 8 8 8 8 9 10 16 14 8 8 10 6 5 7 9 9 9 8 9 8 8 8 8 9 9 10 10 9 9 10 10 10
9 8 8 8 8 7 6 6 11 11 17 18 19 12 6 15 19 21 21 20 22 20 8 8 8 9 9 10 10 9 9 10 9 10 9 9 10 10 11 11 10 10 11
10 10 8 9 8 8 7 7 7 3 10 20 21 20 20 18 21 23 25 21 20 15 8 9 9 9 10 9 10 10 10 9 11 9 10 10 11 11 13 12 11 11 12
10 13 8 7 7 6 7 7 7 7 7 7 15 19 22 22 22 24 24 17 10 11 9 9 10 10 10 11 11 11 11 12 11 11 11 10 10 11 11 12 11 12 12
8 8 7 7 7 8 8 9 8 8 8 9 9 13 16 22 23 22 20 9 10 11 11 11 11 11 11 11 10 10 11 11 11 10 10 10 10 10 12 11 12 16 16
9 12 10 8 8 9 9 8 9 9 9 9 9 12 12 11 10 11 11 11 10 10 10 10 10 9 10 10 10 10 11 11 11 10 11 10 10 10 12 13 12 12 13
7 8 10 9 9 9 8 10 9 9 9 9 8 9 15 10 11 11 11 11 11 11 11 11 11 10 10 10 11 11 12 12 12 12 11 12 12 12 11 11 12 12 12
8 8 9 9 8 9 9 9 9 9 9 9 9 10 13 9 10 11 12 11 11 11 10 11 11 10 10 11 12 12 13 13 12 13 14 13 12 12 12 12 12 12 12
9 9 9 8 9 10 9 8 8 9 9 10 10 10 11 10 11 12 12 12 12 12 11 11 11 11 10 12 12 11 12 14 14 13 15 14 13 12 11 12 12 12 11
9 9 9 9 8 8 8 8 9 10 10 9 10 10 11 11 11 13 13 13 13 13 12 12 11 15 15 14 11 12 13 13 13 14 17 14 14 14 12 12 12 14 13
9 9 9 8 8 8 8 8 9 9 10 10 10 10 10 11 12 12 13 13 13 13 15 14 12 17 19 20 19 22 21 23 19 19 12 14 16 18 14 12 13 12 12
9 9 7 7 7 7 8 8 9 9 10 9 9 10 10 11 11 12 13 15 14 14 17 13 16 22 22 17 22 25 25 24 21 23 15 11 11 11 10 10 11 6 7
Wind_Direction
18 14 21 4 35 20 28 28 22 33 55 33 17 24 27 25 39 41 69 55 42 41 69 70 66 77 97 83 78 70 83 16 19 358 326 348 8 18 23 21 359 325 114
12 13 19 33 35 27 33 40 37 41 41 50 31 38 19 43 45 27 49 57 18 44 39 48 53 46 50 41 56 56 56 27 1 315 328 14 14 13 25 10 342 350 356
8 19 33 46 40 42 37 41 39 39 39 50 39 42 30 13 33 45 53 51 48 40 44 41 35 41 38 19 46 37 32 20 349 334 358 18 7 6 0 339 1 350 340
6 32 36 43 48 50 50 49 50 48 44 41 41 46 34 27 27 31 35 53 51 53 51 50 42 46 41 28 34 22 10 360 11 7 351 5 12 354 325 346 337 338 329
21 31 40 43 51 54 56 45 51 52 48 42 43 40 34 33 22 21 32 35 42 44 45 56 49 48 38 34 21 4 9 1 3 5 351 357 339 334 339 332 315 317 314
36 37 37 49 55 54 55 49 57 55 50 49 39 46 40 31 21 20 32 42 43 44 42 54 70 42 27 15 6 347 338 346 324 324 326 316 304 305 306 325 316 308 312
41 39 39 39 48 46 45 44 46 54 55 53 43 45 45 31 25 17 7 53 53 57 56 29 30 43 20 7 351 353 0 352 10 347 11 353 343 342 336 312 300 297 290
54 48 40 40 46 51 52 51 48 43 41 46 43 44 45 33 28 17 7 18 51 58 58 44 40 34 16 10 357 3 355 6 15 4 349 319 304 295 279 276 280 280 279
56 52 48 48 50 50 49 48 48 44 61 58 40 53 49 38 33 24 20 11 24 45 71 61 41 21 9 9 2 357 15 2 353 340 323 316 335 329 313 297 287 283 281
56 54 49 47 46 45 40 36 44 42 48 56 59 54 42 41 30 31 25 21 7 27 23 17 29 12 9 7 2 12 356 348 335 334 344 330 331 326 329 332 329 316 302
62 62 60 58 53 48 44 40 44 48 49 53 45 38 41 37 25 22 24 22 3 15 14 10 4 4 5 5 14 0 349 333 327 336 322 321 325 327 328 323 316 309 306
66 61 52 46 37 36 42 47 41 40 44 39 40 37 37 26 21 17 15 23 10 13 3 345 338 1 359 0 3 353 347 337 334 335 330 335 335 329 321 315 308 301 293
69 64 64 59 55 45 37 34 27 29 33 41 34 25 23 17 13 12 9 10 9 1 349 331 351 359 355 356 356 0 357 353 348 340 340 332 320 311 312 313 312 309 302
75 77 68 59 54 55 60 46 40 28 32 27 24 31 14 11 8 6 2 355 355 352 337 340 356 358 344 352 355 358 354 353 341 333 326 313 311 319 314 312 311 314 308
74 82 86 93 92 79 63 57 61 60 58 42 28 19 15 12 7 6 359 353 357 343 330 359 1 357 358 354 350 348 345 344 338 333 319 321 321 316 317 316 311 307 301
67 54 46 48 42 55 96 90 74 75 67 57 46 29 11 17 13 12 10 12 12 5 8 2 357 356 351 347 345 341 344 340 334 326 326 321 317 317 318 320 315 310 305
59 54 47 45 44 41 42 36 46 113 75 54 35 26 13 19 18 17 15 12 8 10 11 0 356 352 345 341 339 338 334 332 325 326 326 326 330 321 323 319 314 311 307
63 57 54 44 43 41 37 33 35 30 23 28 31 18 8 18 18 16 16 7 4 8 5 355 350 346 342 341 339 338 335 336 335 329 323 318 318 311 313 308 309 307 302
57 57 53 49 45 40 39 37 29 26 25 25 21 13 1 10 14 13 13 10 360 356 356 353 350 345 342 338 333 327 326 322 317 313 311 312 309 307 307 304 301 300 298
49 46 49 47 43 41 36 36 32 28 23 20 29 12 355 0 5 6 8 5 357 355 349 343 339 334 331 328 328 326 321 316 314 313 311 308 309 311 303 301 298 298 297
64 61 54 50 40 41 35 33 28 25 25 20 19 18 4 7 3 359 357 359 354 353 343 340 334 337 330 332 329 324 318 315 312 309 314 315 310 304 299 295 293 291 289
59 57 53 51 46 40 41 35 26 22 23 16 12 10 8 8 3 359 357 354 347 344 339 335 334 332 333 331 327 319 314 312 317 319 311 308 305 300 297 294 293 290 290
62 58 53 43 43 39 36 32 31 25 22 19 9 9 9 6 2 356 352 347 346 342 340 338 332 330 331 327 318 313 326 322 312 311 307 304 301 296 292 289 289 293 293
56 52 50 53 39 44 33 29 24 24 22 19 13 8 7 2 357 351 353 345 343 340 339 337 332 332 330 326 331 331 318 315 311 305 301 294 291 292 287 285 285 286 286
56 56 52 49 39 36 33 34 22 19 19 18 11 5 2 358 357 351 350 346 341 339 339 336 336 335 333 334 336 330 328 322 315 307 299 288 280 281 278 278 279 284 293
57 53 50 49 44 38 34 30 28 16 15 11 9 3 0 358 355 349 350 345 341 341 339 339 339 338 338 343 339 338 334 331 329 325 316 295 290 289 287 292 304 317 324